Location: Hamayl? Da??
(36.7028°N, 30.1716°E)
Time: 06:42:04
(UTC+00:00)

Cosmos 2333 Rocket - Pass Details

Date: 04 August 2024
Orbit: 838 x 863 km, 70.8° (Epoch: 09 September)

Event Time Altitude Azimuth Distance (km) Brightness Sun altitude
Exits shadow 22:57:11 27° 70° (ENE) 1,606 3.8 -35.0°
Drops below altitude 10° 23:00:24 10° 42° (NE) 2,499 5.3 -34.8°
Sets 23:03:06 0° 33° (NNE) 3,442 6.3 -34.7°
